Location: Delta State University
(33.7460°N, 90.7320°W)
Time: 16:48:22
(UTC-05:00)

Iridium 13 - Visible Passes

Search period start: 31 August 2015 00:00
Search period end: 10 September 2015 00:00
Orbit: 776 x 779 km, 86.4° (Epoch: 31 August)

Date Brightness Start Highest point End Pass type
(mag) Time Alt. Az. Time Alt. Az. Time Alt. Az.
31 Aug 5.6 20:07:25 10° S 20:12:38 83° W 20:17:52 10° N visible
01 Sep 8.5 21:17:17 10° WSW 21:20:17 15° WNW 21:23:01 10° NW visible
02 Sep 9.4 06:11:28 10° ENE 06:12:26 11° ENE 06:13:48 10° E visible
02 Sep 7.7 20:41:56 10° SW 20:46:26 28° W 20:50:51 10° NNW visible
03 Sep 6.4 20:07:39 10° SSW 20:12:45 55° W 20:17:52 10° N visible
05 Sep 8.8 06:09:40 10° NE 06:12:49 17° ENE 06:16:11 10° ESE visible
05 Sep 8.4 20:42:57 10° SW 20:46:43 19° WNW 20:50:18 10° NW visible
06 Sep 7.3 20:08:08 10° SSW 20:12:55 37° W 20:17:42 10° NNW visible
08 Sep 8.3 06:08:57 10° NNE 06:13:07 25° E 06:17:23 10° SE visible
08 Sep 8.8 20:44:38 10° WSW 20:47:03 13° WNW 20:49:08 10° NW visible
09 Sep 9.0 05:37:11 10° NE 05:39:13 13° ENE 05:41:35 10° ESE visible
09 Sep 8.1 20:08:52 10° SW 20:13:10 25° W 20:17:20 10° NNW visible
